Easton, MD

1:41 AM EDT on May 30, 2017 (GMT -0400)
Easton / Newnam

Weather History for KESN - August, 2013

Change the Weather History Date:

Monday, August 5, 2013

  Actual Average Record
Temperature  
Mean Temperature 70 °F -  
Max Temperature 82 °F 84 °F 94 °F (1963)
Min Temperature 59 °F 65 °F 51 °F (1951)
Cooling Degree Days 6    
Growing Degree Days 20 (Base 50)    
Moisture  
Dew Point 59 °F    
Average Humidity 76    
Maximum Humidity 98    
Minimum Humidity 39    
Precipitation  
Precipitation 0.00 in - - ()
Sea Level Pressure  
Sea Level Pressure 30.09 in    
Wind  
Wind Speed 2 mph (NNE)    
Max Wind Speed 10 mph    
Max Gust Speed -    
Visibility 10 miles    
Events      
Averages and records for this station are not official NWS values.
T = Trace of Precipitation, MM = Missing Value Source: NWS Daily Summary

Daily Weather History Graph

Daily Weather History Graph

Search for Another Location

Airport or City:

Trip Planner

Search our weather history database for the weather conditions in past years. The results will help you decide how hot, cold, wet, or windy it might be!

Date:

Astronomy

Aug. 05, 2013 Rise Set
Actual Time 6:09 AM EDT 8:10 PM EDT
Civil Twilight 5:39 AM EDT 8:39 PM EDT
Nautical Twilight 5:04 AM EDT 9:15 PM EDT
Astronomical Twilight 4:25 AM EDT 9:53 PM EDT
Moon 5:02 AM EDT (8/5) 7:10 PM EDT (8/5)
Length of Visible Light 14h 59m
Length of Day
14h 01m
Waning Crescent, 1% of the Moon is Illuminated
Aug 5
Waning Crescent
Aug 6
New
Aug 14
First Quarter
Aug 20
Full
Aug 28
Last Quarter

Hourly Weather History & Observations

Time (EDT) Temp. Heat Index Dew Point Humidity Pressure Visibility Wind Dir Wind Speed Gust Speed Precip Events Conditions
12:08 AM 63.3 °F - 58.8 °F 85% 30.05 in 10.0 mi Calm Calm - N/A   Clear
12:28 AM 62.8 °F - 59.2 °F 88% 30.05 in 10.0 mi Calm Calm - N/A   Clear
12:48 AM 63.1 °F - 59.0 °F 86% 30.06 in 10.0 mi Calm Calm - N/A   Clear
1:08 AM 61.7 °F - 59.2 °F 91% 30.06 in 10.0 mi Calm Calm - N/A   Clear
1:28 AM 61.7 °F - 59.9 °F 94% 30.05 in 10.0 mi Calm Calm - N/A   Clear
1:48 AM 62.1 °F - 59.5 °F 91% 30.05 in 10.0 mi Calm Calm - N/A   Clear
2:08 AM 61.7 °F - 59.5 °F 93% 30.05 in 10.0 mi Calm Calm - N/A   Clear
2:28 AM 59.9 °F - 59.4 °F 98% 30.05 in 10.0 mi Calm Calm - N/A   Clear
2:48 AM 61.0 °F - 59.9 °F 96% 30.05 in 10.0 mi Calm Calm - N/A   Clear
3:08 AM 61.2 °F - 59.9 °F 96% 30.05 in 10.0 mi Calm Calm - N/A   Clear
3:28 AM 61.0 °F - 60.1 °F 97% 30.06 in 10.0 mi Calm Calm - N/A   Clear
3:48 AM 62.6 °F - 59.9 °F 91% 30.07 in 10.0 mi Calm Calm - N/A   Clear
4:08 AM 63.5 °F - 58.8 °F 85% 30.06 in 10.0 mi North 3.5 mph - N/A   Clear
4:28 AM 61.3 °F - 59.0 °F 92% 30.07 in 10.0 mi Calm Calm - N/A   Clear
4:48 AM 61.9 °F - 58.6 °F 89% 30.07 in 10.0 mi NE 4.6 mph - N/A   Clear
5:08 AM 60.8 °F - 58.8 °F 93% 30.07 in 10.0 mi ENE 6.9 mph - N/A   Clear
5:45 AM 60.8 °F - 59.0 °F 94% 30.08 in 10.0 mi NE 3.5 mph - N/A   Mostly Cloudy
5:49 AM 60.8 °F - 58.8 °F 93% 30.08 in 10.0 mi NE 3.5 mph - N/A   Clear
6:09 AM 60.1 °F - 58.3 °F 94% 30.09 in 10.0 mi Calm Calm - N/A   Clear
6:29 AM 59.9 °F - 58.5 °F 95% 30.09 in 10.0 mi Calm Calm - N/A   Clear
6:45 AM 62.6 °F - 59.0 °F 88% 30.10 in 10.0 mi Calm Calm - N/A   Scattered Clouds
6:49 AM 62.6 °F - 58.8 °F 87% 30.10 in 10.0 mi Calm Calm - N/A   Clear
7:09 AM 66.6 °F - 61.0 °F 82% 30.11 in 10.0 mi Calm Calm - N/A   Clear
7:29 AM 65.7 °F - 61.0 °F 85% 30.11 in 10.0 mi Calm Calm - N/A   Clear
7:42 AM 66.6 °F - 61.2 °F 83% 30.11 in 10.0 mi Calm Calm - N/A   Clear
7:45 AM 66.2 °F - 59.0 °F 78% 30.11 in 10.0 mi NNE 3.5 mph - N/A   Partly Cloudy
8:45 AM 68.0 °F - 57.2 °F 68% 30.13 in 10.0 mi NNE 6.9 mph - N/A   Scattered Clouds
9:50 AM 71.6 °F - 57.2 °F 60% 30.14 in 10.0 mi NNE 10.4 mph - N/A   Scattered Clouds
10:45 AM 73.4 °F - 55.4 °F 53% 30.14 in 10.0 mi ENE 6.9 mph - N/A   Clear
11:49 AM 76.5 °F - 55.0 °F 47% 30.14 in 10.0 mi North 3.5 mph - N/A   Clear
11:55 AM 77.0 °F - 55.4 °F 47% 30.14 in 10.0 mi North 6.9 mph - N/A   Clear
12:09 PM 76.5 °F - 55.4 °F 48% 30.14 in 10.0 mi NW 4.6 mph - N/A   Clear
12:16 PM 77.4 °F - 55.6 °F 47% 30.14 in 10.0 mi North 4.6 mph - N/A   Clear
12:53 PM 77.0 °F - 57.2 °F 50% 30.12 in 10.0 mi NNW 3.5 mph - N/A   Scattered Clouds
1:55 PM 80.6 °F 80.8 °F 57.2 °F 45% 30.11 in 10.0 mi SW 4.6 mph - N/A   Scattered Clouds
2:50 PM 80.6 °F 80.8 °F 57.2 °F 45% 30.09 in 10.0 mi NW 4.6 mph - N/A   Scattered Clouds
3:50 PM 82.4 °F 81.7 °F 55.4 °F 39% 30.07 in 10.0 mi NW 3.5 mph - N/A   Mostly Cloudy
4:50 PM 82.4 °F 82.0 °F 57.2 °F 42% 30.07 in 10.0 mi North 3.5 mph - N/A   Mostly Cloudy
5:53 PM 80.6 °F 80.8 °F 57.2 °F 45% 30.07 in 10.0 mi Variable 3.5 mph - N/A   Scattered Clouds
6:53 PM 77.0 °F - 57.2 °F 50% 30.08 in 10.0 mi Calm Calm - N/A   Mostly Cloudy
7:50 PM 71.6 °F - 62.6 °F 73% 30.09 in 10.0 mi Calm Calm - N/A   Mostly Cloudy
8:53 PM 68.0 °F - 62.6 °F 83% 30.09 in 10.0 mi Calm Calm - N/A   Mostly Cloudy
10:50 PM 66.9 °F - 62.4 °F 85% 30.08 in 10.0 mi SE 5.8 mph - N/A   Clear
11:11 PM 67.5 °F - 61.3 °F 81% 30.08 in 10.0 mi SE 4.6 mph - N/A   Clear
11:31 PM 67.3 °F - 60.8 °F 80% 30.08 in 10.0 mi SE 4.6 mph - N/A   Clear
11:51 PM 67.1 °F - 60.8 °F 80% 30.08 in 10.0 mi SSE 4.6 mph - N/A   Clear